Weather History for Chippewa, MI

Change the Weather History Date:

Thursday, October 20, 2011

  Actual Average Record
Temperature  
Mean Temperature 42 °F -  
Max Temperature 44 °F 50 °F 66 °F (1979)
Min Temperature 39 °F 32 °F 21 °F (1983)
Degree Days  
Heating Degree Days 24    
Moisture  
Dew Point 35 °F    
Average Humidity 77    
Maximum Humidity 87    
Minimum Humidity 57    
Precipitation  
Precipitation 0.99 in - - ()
Sea Level Pressure  
Sea Level Pressure 29.52 in    
Wind  
Wind Speed 18 mph (North)    
Max Wind Speed 24 mph    
Max Gust Speed 34 mph    
Visibility 9 miles    
Events      
Averages and records for this station are not official NWS values.
T = Trace of Precipitation, MM = Missing Value Source: NWS Daily Summary

Daily Weather History Graph

Daily Weather History Graph

Search for Another Location

Airport:

Trip Planner

Search our weather history database for the weather conditions in past years. The results will help you decide how hot, cold, wet, or windy it might be!

Date:

Astronomy

Oct. 20, 2011 Rise Set
Actual Time 8:01 AM EDT 6:43 PM EDT
Civil Twilight 7:31 AM EDT 7:13 PM EDT
Nautical Twilight 6:56 AM EDT 7:48 PM EDT
Astronomical Twilight 6:21 AM EDT 8:23 PM EDT
Moon 12:21 AM EDT (10/20) 3:13 PM EDT (10/20)
Length of Visible Light 11h 42m
Length of Day
10h 41m
Last Quarter, 44% of the Moon is Illuminated
Oct 20
Last Quarter
Oct 26
New
Nov 2
First Quarter
Nov 10
Full
Nov 18
Last Quarter

Hourly Weather History & Observations

Time (EDT) Temp. Windchill Dew Point Humidity Pressure Visibility Wind Dir Wind Speed Gust Speed Precip Events Conditions
12:15 AM 44.6 °F 36.6 °F 30.2 °F 57% 29.76 in 10.0 mi NNE 19.6 mph 29.9 mph N/A   Overcast
12:35 AM 44.6 °F 36.1 °F 32.0 °F 61% 29.75 in 10.0 mi NNE 21.9 mph 27.6 mph N/A   Overcast
12:55 AM 42.8 °F 35.1 °F 32.0 °F 66% 29.74 in 10.0 mi NNE 16.1 mph 23.0 mph N/A   Overcast
1:15 AM 42.8 °F 34.8 °F 33.8 °F 70% 29.72 in 10.0 mi NNE 17.3 mph 23.0 mph N/A   Overcast
1:35 AM 41.0 °F 33.1 °F 33.8 °F 76% 29.71 in 10.0 mi NNE 15.0 mph - N/A   Overcast
1:55 AM 41.0 °F 33.1 °F 33.8 °F 76% 29.69 in 10.0 mi North 15.0 mph 21.9 mph N/A   Overcast
2:15 AM 41.0 °F 32.8 °F 33.8 °F 76% 29.68 in 10.0 mi North 16.1 mph 21.9 mph N/A   Overcast
2:35 AM 41.0 °F 32.8 °F 33.8 °F 76% 29.66 in 10.0 mi North 16.1 mph 20.7 mph N/A   Overcast
2:55 AM 41.0 °F 33.1 °F 33.8 °F 76% 29.64 in 10.0 mi North 15.0 mph 20.7 mph N/A   Overcast
3:15 AM 42.8 °F 34.8 °F 33.8 °F 70% 29.62 in 10.0 mi North 17.3 mph 21.9 mph N/A   Overcast
3:35 AM 42.8 °F 34.3 °F 33.8 °F 70% 29.61 in 10.0 mi North 19.6 mph 25.3 mph N/A   Overcast
3:55 AM 42.8 °F 35.1 °F 33.8 °F 70% 29.59 in 10.0 mi North 16.1 mph 24.2 mph N/A   Overcast
4:15 AM 42.8 °F 34.0 °F 33.8 °F 70% 29.58 in 10.0 mi NNE 20.7 mph 26.5 mph N/A   Overcast
4:35 AM 42.8 °F 35.8 °F 33.8 °F 70% 29.57 in 10.0 mi North 13.8 mph 23.0 mph N/A   Overcast
4:55 AM 41.0 °F 32.8 °F 33.8 °F 76% 29.56 in 10.0 mi North 16.1 mph 25.3 mph 0.01 in   Overcast
5:15 AM 41.0 °F 32.2 °F 33.8 °F 76% 29.55 in 10.0 mi North 18.4 mph 24.2 mph N/A   Overcast
5:35 AM 41.0 °F 33.1 °F 33.8 °F 76% 29.54 in 10.0 mi North 15.0 mph 21.9 mph 0.01 in   Overcast
5:55 AM 42.8 °F 34.8 °F 33.8 °F 70% 29.54 in 10.0 mi North 17.3 mph 26.5 mph 0.03 in   Overcast
6:15 AM 42.8 °F 34.3 °F 33.8 °F 70% 29.53 in 10.0 mi NNE 19.6 mph 25.3 mph N/A   Overcast
6:35 AM 41.0 °F 31.6 °F 33.8 °F 76% 29.52 in 10.0 mi NNE 20.7 mph 29.9 mph 0.04 in   Overcast
6:55 AM 41.0 °F 31.9 °F 35.6 °F 81% 29.51 in 10.0 mi North 19.6 mph 34.5 mph 0.07 in   Overcast
7:15 AM 41.0 °F 31.1 °F 35.6 °F 81% 29.50 in 5.0 mi North 23.0 mph 28.8 mph 0.05 in   Mostly Cloudy
7:35 AM 39.2 °F 29.3 °F 35.6 °F 87% 29.48 in 5.0 mi North 20.7 mph 33.4 mph 0.10 in   Mostly Cloudy
7:55 AM 39.2 °F 30.2 °F 35.6 °F 87% 29.48 in 6.0 mi North 17.3 mph 26.5 mph 0.16 in   Overcast
8:15 AM 39.2 °F 30.2 °F 35.6 °F 87% 29.48 in 5.0 mi North 17.3 mph 24.2 mph 0.07 in   Overcast
8:35 AM 39.2 °F 29.8 °F 35.6 °F 87% 29.47 in 4.0 mi North 18.4 mph 26.5 mph 0.16 in   Overcast
8:55 AM 39.2 °F 29.3 °F 35.6 °F 87% 29.47 in 3.0 mi North 20.7 mph 27.6 mph 0.23 in   Overcast
9:15 AM 39.2 °F 29.3 °F 35.6 °F 87% 29.46 in 3.0 mi North 20.7 mph 28.8 mph 0.09 in   Overcast
9:35 AM 39.2 °F 29.3 °F 35.6 °F 87% 29.46 in 3.0 mi North 20.7 mph 28.8 mph 0.16 in   Overcast
9:55 AM 39.2 °F 28.5 °F 35.6 °F 87% 29.45 in 4.0 mi North 24.2 mph 28.8 mph 0.22 in   Overcast
10:15 AM 39.2 °F 29.8 °F 35.6 °F 87% 29.46 in 3.0 mi North 18.4 mph 25.3 mph 0.06 in   Overcast
10:35 AM 39.2 °F 30.5 °F 35.6 °F 87% 29.46 in 4.0 mi North 16.1 mph - 0.12 in   Overcast
10:55 AM 39.2 °F 31.2 °F 35.6 °F 87% 29.46 in 7.0 mi North 13.8 mph 21.9 mph 0.16 in   Overcast
11:15 AM 39.2 °F 30.8 °F 35.6 °F 87% 29.45 in 7.0 mi North 15.0 mph - 0.02 in   Overcast
11:35 AM 39.2 °F 30.2 °F 35.6 °F 87% 29.45 in 7.0 mi North 17.3 mph 29.9 mph 0.05 in   Overcast
11:55 AM 39.2 °F 29.8 °F 35.6 °F 87% 29.45 in 10.0 mi North 18.4 mph 24.2 mph 0.06 in   Overcast
12:15 PM 39.2 °F 29.8 °F 35.6 °F 87% 29.44 in 10.0 mi North 18.4 mph 21.9 mph N/A   Overcast
12:35 PM 41.0 °F 33.1 °F 35.6 °F 81% 29.44 in 10.0 mi North 15.0 mph 20.7 mph N/A   Overcast
12:55 PM 41.0 °F 32.8 °F 35.6 °F 81% 29.44 in 10.0 mi North 16.1 mph 21.9 mph N/A   Overcast
1:15 PM 41.0 °F 33.5 °F 35.6 °F 81% 29.44 in 10.0 mi North 13.8 mph 20.7 mph N/A   Overcast
1:35 PM 41.0 °F 33.1 °F 35.6 °F 81% 29.43 in 10.0 mi North 15.0 mph 20.7 mph N/A   Overcast
1:55 PM 41.0 °F 32.8 °F 35.6 °F 81% 29.43 in 10.0 mi North 16.1 mph 21.9 mph 0.01 in   Overcast
2:35 PM 41.0 °F 32.8 °F 35.6 °F 81% 29.42 in 10.0 mi North 16.1 mph - N/A   Overcast
2:55 PM 42.8 °F 35.8 °F 35.6 °F 76% 29.43 in 10.0 mi North 13.8 mph 21.9 mph 0.02 in   Overcast
3:15 PM 42.8 °F 35.4 °F 35.6 °F 76% 29.44 in 10.0 mi North 15.0 mph 20.7 mph N/A   Overcast
3:35 PM 42.8 °F 34.8 °F 35.6 °F 76% 29.44 in 10.0 mi North 17.3 mph 23.0 mph 0.01 in   Overcast
3:55 PM 42.8 °F 35.4 °F 35.6 °F 76% 29.45 in 10.0 mi North 15.0 mph 21.9 mph 0.01 in   Overcast
4:15 PM 42.8 °F 35.4 °F 35.6 °F 76% 29.45 in 10.0 mi North 15.0 mph - N/A   Overcast
4:35 PM 42.8 °F 34.8 °F 35.6 °F 76% 29.46 in 10.0 mi North 17.3 mph 21.9 mph N/A   Overcast
4:55 PM 42.8 °F 34.8 °F 35.6 °F 76% 29.47 in 10.0 mi North 17.3 mph 23.0 mph N/A   Overcast
5:15 PM 42.8 °F 35.4 °F 35.6 °F 76% 29.48 in 10.0 mi North 15.0 mph - N/A   Overcast
5:35 PM 42.8 °F 35.4 °F 33.8 °F 70% 29.49 in 10.0 mi North 15.0 mph - N/A   Overcast
5:55 PM 42.8 °F 35.4 °F 33.8 °F 70% 29.50 in 10.0 mi North 15.0 mph 24.2 mph N/A   Overcast
6:15 PM 41.0 °F 33.9 °F 33.8 °F 76% 29.51 in 10.0 mi North 12.7 mph 19.6 mph N/A   Overcast
6:35 PM 41.0 °F 32.2 °F 33.8 °F 76% 29.52 in 10.0 mi North 18.4 mph 24.2 mph 0.01 in   Overcast
6:55 PM 42.8 °F 35.1 °F 33.8 °F 70% 29.53 in 10.0 mi North 16.1 mph 21.9 mph 0.01 in   Overcast
7:15 PM 42.8 °F 36.2 °F 33.8 °F 70% 29.54 in 10.0 mi North 12.7 mph 20.7 mph N/A   Overcast
7:35 PM 42.8 °F 35.4 °F 33.8 °F 70% 29.55 in 10.0 mi North 15.0 mph 23.0 mph N/A   Overcast
7:55 PM 42.8 °F 35.8 °F 33.8 °F 70% 29.56 in 10.0 mi North 13.8 mph - N/A   Overcast
8:15 PM 42.8 °F 35.8 °F 32.0 °F 66% 29.57 in 10.0 mi North 13.8 mph 25.3 mph N/A   Overcast
8:55 PM 42.8 °F 35.1 °F 32.0 °F 66% 29.58 in 10.0 mi North 16.1 mph 25.3 mph N/A   Overcast
9:15 PM 42.8 °F 34.0 °F 32.0 °F 66% 29.59 in 10.0 mi North 20.7 mph 27.6 mph N/A   Overcast
9:35 PM 42.8 °F 34.8 °F 32.0 °F 66% 29.61 in 10.0 mi North 17.3 mph 24.2 mph N/A   Overcast
9:55 PM 42.8 °F 35.1 °F 32.0 °F 66% 29.62 in 10.0 mi North 16.1 mph 26.5 mph N/A   Overcast
10:15 PM 42.8 °F 34.3 °F 32.0 °F 66% 29.63 in 10.0 mi North 19.6 mph 24.2 mph N/A   Overcast
10:35 PM 42.8 °F 34.8 °F 32.0 °F 66% 29.64 in 10.0 mi North 17.3 mph 23.0 mph N/A   Overcast
10:55 PM 42.8 °F 36.2 °F 32.0 °F 66% 29.65 in 10.0 mi North 12.7 mph 17.3 mph N/A   Overcast
11:15 PM 42.8 °F 36.2 °F 32.0 °F 66% 29.65 in 10.0 mi North 12.7 mph 19.6 mph N/A   Overcast
11:35 PM 42.8 °F 35.1 °F 32.0 °F 66% 29.66 in 10.0 mi North 16.1 mph 19.6 mph N/A   Overcast
11:55 PM 42.8 °F 35.1 °F 32.0 °F 66% 29.66 in 10.0 mi North 16.1 mph 23.0 mph N/A   Overcast